EW7535 Weather Reports


Display with metric or nautical units.
time (UTC)temp
F
wind
direction
speed
MPH
gust
MPH
rain 1hr
in
rain 24hr
in
rain mn
in
humidity
%
barometer
mb
20260506101516 56 307 0.0 0.0 0.00 0.04 0.00 58 1012.0
20260506100023 56 316 0.0 0.0 0.00 0.04 0.00 56 1011.8
20260506094516 55 70 0.0 0.0 0.00 0.07 0.00 58 1011.8
20260506093010 56 303 0.0 0.0 0.00 0.07 0.00 59 1011.8
20260506091507 56 287 0.0 0.0 0.00 0.07 0.00 56 1011.7
20260506090033 57 287 0.0 2.0 0.00 0.07 0.00 55 1011.7
20260506084531 58 297 1.0 4.0 0.00 0.10 0.00 54 1011.8
20260506083027 59 305 2.0 5.0 0.00 0.10 0.00 51 1011.7
20260506081531 59 265 3.0 6.0 0.00 0.10 0.00 50 1011.8
20260506073019 59 268 2.0 4.0 0.00 0.14 0.00 50 1011.8
20260506071518 60 304 3.0 6.0 0.00 0.14 0.00 50 1011.8
20260506061543 62 297 2.0 6.0 0.00 0.22 0.14 48 1011.5
20260506044537 65 296 5.0 8.0 0.00 0.31 0.14 43 1010.9
20260506043033 65 292 3.0 13.0 0.00 0.31 0.14 49 1010.7
20260506041538 65 295 5.0 13.0 0.00 0.31 0.14 49 1010.6
20260506040030 65 311 3.0 8.0 0.00 0.31 0.14 47 1010.3
20260506034529 66 298 2.0 5.0 0.00 0.31 0.14 43 1010.0
20260506033028 66 261 1.0 7.0 0.00 0.31 0.14 42 1009.8
20260506031534 67 295 2.0 7.0 0.00 0.31 0.14 40 1009.5
20260506030024 67 299 4.0 8.0 0.00 0.31 0.14 39 1009.3
20260506024536 67 281 4.0 8.0 0.00 0.34 0.14 38 1009.1
20260506023022 68 294 4.0 10.0 0.00 0.34 0.14 36 1008.9
20260506021522 69 289 6.0 11.0 0.00 0.34 0.14 34 1008.6
20260506020020 69 299 7.0 14.0 0.00 0.34 0.14 33 1008.4
20260506014518 70 292 5.0 11.0 0.00 0.36 0.14 34 1008.2
20260506013019 71 276 10.0 21.0 0.00 0.36 0.14 33 1008.1
20260506011539 72 304 10.0 20.0 0.00 0.36 0.14 34 1008.0
20260506010116 73 277 5.0 18.0 0.00 0.36 0.14 31 1007.8
20260506004600 73 299 6.0 16.0 0.00 0.36 0.14 30 1007.6
20260506003047 75 288 7.0 13.0 0.00 0.36 0.14 30 1007.4
20260506001545 74 289 10.0 19.0 0.00 0.36 0.14 30 1007.3
20260506000110 75 250 3.0 19.0 0.00 0.36 0.14 28 1007.3
20260505234546 76 288 5.0 11.0 0.00 0.36 0.14 28 1007.2
20260505233040 76 283 6.0 11.0 0.00 0.36 0.14 27 1007.1
20260505231510 76 290 9.0 22.0 0.00 0.36 0.14 26 1007.1
20260505230010 77 312 3.0 8.0 0.00 0.36 0.14 30 1007.1
20260505224503 75 297 0.0 6.0 0.00 0.36 0.14 34 1007.3
20260505223003 75 285 3.0 9.0 0.00 0.36 0.14 35 1007.5
20260505221502 74 248 2.0 11.0 0.00 0.36 0.14 34 1007.6
20260505220100 76 242 5.0 13.0 0.00 0.36 0.14 31 1007.7
20260505214556 77 285 0.0 7.0 0.00 0.36 0.14 34 1008.0
20260505213055 76 232 4.0 15.0 0.00 0.36 0.14 30 1008.1
20260505211553 76 284 4.0 15.0 0.00 0.36 0.14 32 1008.1
20260505210052 76 257 6.0 12.0 0.00 0.36 0.14 29 1008.2
20260505204521 76 296 6.0 12.0 0.00 0.36 0.14 33 1008.2
20260505203019 74 282 7.0 14.0 0.00 0.36 0.14 33 1008.1
20260505201514 73 243 2.0 16.0 0.00 0.36 0.14 41 1008.3
20260505200012 73 264 3.0 13.0 0.00 0.36 0.14 42 1008.4
20260505194509 71 257 0.0 5.0 0.00 0.36 0.14 55 1008.6
20260505193010 70 102 0.0 3.0 0.00 0.36 0.14 54 1008.5
20260505191552 70 268 2.0 6.0 0.00 0.36 0.14 55 1008.7
20260505190136 71 300 0.0 5.0 0.00 0.36 0.14 55 1008.9
20260505184535 68 1 2.0 5.0 0.00 0.36 0.14 58 1009.2
20260505183029 68 291 1.0 6.0 0.00 0.36 0.14 61 1009.4
20260505181528 67 238 0.0 4.0 0.00 0.36 0.14 61 1009.7
20260505180038 67 302 0.0 3.0 0.00 0.36 0.14 61 1009.7
20260505174524 67 295 2.0 5.0 0.00 0.36 0.14 62 1009.7
20260505173026 67 283 1.0 4.0 0.00 0.36 0.14 61 1009.7
20260505171522 66 308 1.0 3.0 0.00 0.36 0.14 64 1009.7
20260505170023 67 297 0.0 4.0 0.00 0.36 0.14 64 1009.6
20260505164515 66 120 0.0 3.0 0.00 0.36 0.14 73 1009.6
20260505163015 64 131 0.0 2.0 0.00 0.36 0.14 79 1009.6
20260505161508 62 262 0.0 0.0 0.00 0.36 0.14 80 1009.8
20260505153003 62 250 0.0 0.0 0.00 0.36 0.14 83 1009.4
20260505151601 61 123 0.0 3.0 0.00 0.36 0.14 82 1009.3
20260505150126 61 123 0.0 0.0 0.00 0.36 0.14 86 1009.3
20260505124551 57 88 0.0 1.0 0.01 0.36 0.14 90 1008.1
20260505123142 58 115 0.0 0.0 0.02 0.36 0.14 91 1008.2
20260505121612 57 115 0.0 0.0 0.02 0.36 0.14 90 1008.1
20260505120040 57 115 0.0 0.0 0.01 0.35 0.13 88 1007.8
20260505114536 58 111 0.0 5.0 0.01 0.35 0.13 87 1007.6
20260505113036 58 93 0.0 0.0 0.01 0.34 0.12 88 1008.0
20260505111538 57 94 0.0 4.0 0.01 0.34 0.12 88 1008.0